Regional Weather Roundup
Issued by NWS

Home | Current Version | Previous Version | Graphics & Text | Print | Product List | Glossary On
Versions: 1 2 3 4 5 6 7 8 9 10 11 12 13 14 15 16 17 18 19 20 21 22 23 24 25 26 27 28 29 30 31 32 33 34 35 36 37 38 39 40 41 42 43 44 45 46 47 48 49 50
000
ASUS45 KCYS 280010
RWRWY

WYOMING REGIONAL WEATHER ROUNDUP
NATIONAL WEATHER SERVICE CHEYENNE WY
600 PM MDT WED AUG 27 2014

NOTE:  "FAIR" INDICATES FEW OR NO CLOUDS BELOW 12,000 FEET
WITH NO SIGNIFICANT WEATHER AND/OR OBSTRUCTIONS TO VISIBILITY.

WYZ001-280100-
YELLOWSTONE NATIONAL PARK

CITY           SKY/WX    TMP DP  RH WIND       PRES   REMARKS
LK YELLOWSTONE   N/A     67  36  31 W9        30.32S
6HR MIN TEMP:  55; 6HR MAX TEMP:  68;

W YELLOWSTONE  NOT AVBL

$$
WYZ002>013-054>058-071-098>099-280100-
NORTHERN WYOMING

CITY           SKY/WX    TMP DP  RH WIND       PRES   REMARKS
JACKSON        NOT AVBL
CODY           PTSUNNY   73  43  33 CALM      30.11S
GREYBULL       CLOUDY    77  46  33 S3        30.05F
6HR MIN TEMP:  74; 6HR MAX TEMP:  79;

WORLAND        CLOUDY    72  56  57 SW6       30.08S
6HR MIN TEMP:  67; 6HR MAX TEMP:  75;

SHERIDAN       CLOUDY    79  49  34 CALM      30.06R
6HR MIN TEMP:  74; 6HR MAX TEMP:  85;

BUFFALO        CLOUDY    74  51  44 SE7       30.13R
6HR MIN TEMP:  70; 6HR MAX TEMP:  78;

GILLETTE       LGT RAIN  61  57  87 S14       30.11S
6HR MIN TEMP:  61; 6HR MAX TEMP:  81; 6HR PCP: TRACE;

HULETT         FAIR      66  59  77 MISG      30.10
NEWCASTLE      DRIZZLE   64  57  77 CALM      30.11

$$
WYZ014>020-022>026-101>103-280100-
CENTRAL WYOMING

CITY           SKY/WX    TMP DP  RH WIND       PRES   REMARKS
BIG PINEY      CLOUDY    56  49  77 SE7       30.31S
6HR MIN TEMP:  54; 6HR MAX TEMP:  57; 6HR PCP: TRACE;

PINEDALE       LGT RAIN  52  52 100 SE6       30.32S
DUBOIS         MOCLDY    59  45  58 SE5       30.27S
LANDER         CLOUDY    61  51  70 SW9       30.18F
6HR MIN TEMP:  55; 6HR MAX TEMP:  61; 6HR PCP:  0.16;

RIVERTON       CLOUDY    60  52  74 SW9       30.19F
6HR MIN TEMP:  55; 6HR MAX TEMP:  60; 6HR PCP:  0.07;

CASPER         CLOUDY    66  53  63 SW6       30.15R
6HR MIN TEMP:  58; 6HR MAX TEMP:  67; 6HR PCP:  0.01;

DOUGLAS        MOSUNNY   66  58  75 NW7       30.13R
6HR MIN TEMP:  61; 6HR MAX TEMP:  67; 6HR PCP:  0.15;


$$
WYZ021-027>030-104>119-280100-
SOUTHERN WYOMING

CITY           SKY/WX    TMP DP  RH WIND       PRES   REMARKS
EVANSTON       CLOUDY    56  44  64 W7        30.33S
6HR MIN TEMP:  53; 6HR MAX TEMP:  60; 6HR PCP: TRACE;

KEMMERER       CLOUDY   N/A N/A N/A CALM      30.34R
FORT BRIDGER     N/A     51  49  95 CALM      30.37R
ROCK SPRINGS   LGT RAIN  52  49  89 W9        30.31S
6HR MIN TEMP:  52; 6HR MAX TEMP:  58; 6HR PCP:  0.01;

DIXON          LGT RAIN  54  48  81 CALM      30.30F
RAWLINS        PTSUNNY   59  47  64 W16       30.25S
6HR MIN TEMP:  53; 6HR MAX TEMP:  63; 6HR PCP: TRACE;

SARATOGA       CLOUDY    54  46  76 W12G20    30.28S
LARAMIE        CLOUDY    60  45  57 W10G18    30.24F
6HR MIN TEMP:  53; 6HR MAX TEMP:  66; 6HR PCP:  0.08;

CHEYENNE       CLOUDY    57  52  83 N10       30.18S
6HR MIN TEMP:  54; 6HR MAX TEMP:  70; 6HR PCP:  0.32;

TORRINGTON     SUNNY     70  60  70 CALM      30.06S
6HR MIN TEMP:  57; 6HR MAX TEMP:  70; 6HR PCP:  0.63;

PINE BLUFFS    CLOUDY    64  55  72 NW5       30.13R

$$



USA.gov is the U.S. government's official web portal to all federal, state and local government web resources and services.